New Philadelphia, OH

6:59 PM EDT on June 24, 2017 (GMT -0400)
Clever

Weather History for KPHD - July, 2012

Change the Weather History Date:

Monday, July 23, 2012

  Actual Average Record
Temperature  
Mean Temperature 78 °F 73 °F  
Max Temperature 87 °F 84 °F 98 °F (2016)
Min Temperature 69 °F 62 °F 47 °F (1981)
Degree Days  
Heating Degree Days 0 0  
Month to date heating degree days 0 0  
Since 1 June heating degree days 18 35  
Since 1 July heating degree days 0 0  
Cooling Degree Days 13 8  
Month to date cooling degree days 302 175  
Year to date cooling degree days 621 361  
Since 1 June cooling degree days 474 318  
Growing Degree Days 28 (Base 50)    
Moisture  
Dew Point 68 °F    
Average Humidity 69    
Maximum Humidity 90    
Minimum Humidity 48    
Precipitation  
Precipitation T in 0.14 in 1.99 in (1951)
Month to date precipitation 3.18 2.86  
Year to date precipitation 15.66 22.19  
Sea Level Pressure  
Sea Level Pressure 30.02 in    
Wind  
Wind Speed 4 mph (South)    
Max Wind Speed 13 mph    
Max Gust Speed 23 mph    
Visibility 10 miles    
Events Rain    
T = Trace of Precipitation, MM = Missing Value Source: NWS Daily Summary

Daily Weather History Graph

Daily Weather History Graph

Search for Another Location

Airport or City:

Trip Planner

Search our weather history database for the weather conditions in past years. The results will help you decide how hot, cold, wet, or windy it might be!

Date:

Astronomy

Jul. 23, 2012 Rise Set
Actual Time 6:15 AM EDT 8:48 PM EDT
Civil Twilight 5:43 AM EDT 9:20 PM EDT
Nautical Twilight 5:04 AM EDT 9:59 PM EDT
Astronomical Twilight 4:20 AM EDT 10:42 PM EDT
Moon 11:05 AM EDT (7/23) 11:01 PM EDT (7/23)
Length of Visible Light 15h 36m
Length of Day
14h 33m
Waxing Crescent, 21% of the Moon is Illuminated
Jul 23
Waxing Crescent
Jul 26
First Quarter
Aug 1
Full
Aug 9
Last Quarter
Aug 17
New

Hourly Weather History & Observations

Time (EDT) Temp. Heat Index Dew Point Humidity Pressure Visibility Wind Dir Wind Speed Gust Speed Precip Events Conditions
12:53 AM 72.0 °F - 68.0 °F 87% 30.11 in 10.0 mi Calm Calm - N/A   Clear
1:53 AM 72.0 °F - 66.9 °F 84% 30.11 in 10.0 mi Calm Calm - N/A   Scattered Clouds
2:53 AM 72.0 °F - 68.0 °F 87% 30.10 in 10.0 mi ESE 3.5 mph - N/A   Scattered Clouds
3:53 AM 72.0 °F - 66.9 °F 84% 30.08 in 10.0 mi SE 4.6 mph - N/A   Partly Cloudy
4:53 AM 71.1 °F - 66.9 °F 87% 30.08 in 10.0 mi SE 4.6 mph - N/A   Clear
5:53 AM 70.0 °F - 66.0 °F 87% 30.08 in 10.0 mi Calm Calm - N/A   Clear
7:53 AM 72.0 °F - 68.0 °F 87% 30.09 in 9.0 mi SSE 3.5 mph - N/A   Clear
8:53 AM 73.9 °F - 68.0 °F 82% 30.09 in 10.0 mi Calm Calm - N/A   Mostly Cloudy
9:53 AM 75.9 °F - 68.0 °F 76% 30.08 in 10.0 mi Calm Calm - N/A   Overcast
10:53 AM 78.1 °F - 66.9 °F 68% 30.08 in 10.0 mi Variable 3.5 mph - N/A   Overcast
11:53 AM 77.0 °F - 66.0 °F 69% 30.09 in 10.0 mi Variable 5.8 mph - 0.00 in Rain Light Rain
12:53 PM 75.9 °F - 69.1 °F 79% 30.07 in 10.0 mi SW 3.5 mph - 0.00 in   Mostly Cloudy
1:53 PM 79.0 °F - 68.0 °F 69% 30.04 in 10.0 mi Variable 3.5 mph - N/A   Clear
2:53 PM 82.9 °F 86.5 °F 69.1 °F 63% 30.02 in 10.0 mi Variable 4.6 mph - N/A   Partly Cloudy
3:53 PM 86.0 °F 87.6 °F 64.9 °F 49% 29.99 in 10.0 mi Variable 5.8 mph - N/A   Partly Cloudy
4:53 PM 87.1 °F 89.2 °F 66.0 °F 49% 29.95 in 10.0 mi SW 5.8 mph - N/A   Partly Cloudy
5:53 PM 87.1 °F 89.9 °F 66.9 °F 51% 29.93 in 10.0 mi WSW 8.1 mph - N/A   Partly Cloudy
6:53 PM 84.9 °F 90.7 °F 72.0 °F 65% 29.92 in 10.0 mi Variable 5.8 mph - N/A   Clear
7:53 PM 84.9 °F 89.4 °F 70.0 °F 61% 29.91 in 10.0 mi Variable 5.8 mph - N/A   Clear
8:53 PM 82.9 °F 86.5 °F 69.1 °F 63% 29.91 in 10.0 mi Variable 3.5 mph - N/A   Clear
9:53 PM 82.9 °F 86.5 °F 69.1 °F 63% 29.91 in 10.0 mi Variable 3.5 mph - N/A   Clear
10:53 PM 82.0 °F 85.9 °F 70.0 °F 67% 29.91 in 10.0 mi Calm Calm - N/A   Clear
11:53 PM 81.0 °F 84.9 °F 71.1 °F 72% 29.90 in 10.0 mi Variable 3.5 mph - N/A   Clear